Date,TemperatureHighF,TemperatureAvgF,TemperatureLowF,DewpointHighF,DewpointAvgF,DewpointLowF,HumidityHigh,HumidityAvg,HumidityLow,PressureMaxIn,PressureMinIn,WindSpeedMaxMPH,WindSpeedAvgMPH,GustSpeedMaxMPH,PrecipitationSumIn
2013-4-1,44.1,38.0,30.4,41.2,28.8,10.6,94,72,38,29.89,29.67,23,10,23,0.02
2013-4-2,36.9,29.3,23.4,12.4,9.8,2.3,60,46,29,30.06,29.88,22,8,22,0.00
2013-4-3,38.3,29.6,21.9,14.9,8.7,1.9,57,43,26,30.25,30.04,29,8,29,0.00
2013-4-4,46.6,31.8,14.5,15.1,7.8,0.3,69,41,23,30.25,29.91,16,4,16,0.00
2013-4-5,53.1,42.5,31.8,28.1,21.5,14.5,67,46,31,30.04,29.85,28,8,28,0.00
2013-4-6,54.5,39.1,22.8,22.4,14.5,7.3,76,44,21,30.17,30.03,13,5,13,0.00
2013-4-7,70.5,54.5,42.1,51.3,32.8,14.6,99,48,32,30.06,29.88,27,7,27,0.07
2013-4-8,72.1,59.8,44.2,51.0,45.3,40.1,99,65,35,30.03,29.91,20,4,20,0.00
2013-4-9,78.6,65.9,55.4,56.0,51.6,45.9,86,63,41,30.09,29.92,15,5,15,0.00
2013-4-10,80.8,72.6,57.6,58.2,54.2,50.2,97,55,40,29.97,29.83,30,11,30,0.02
2013-4-11,78.8,64.9,49.5,59.9,54.1,45.6,99,73,35,29.92,29.67,18,4,18,0.00
2013-4-12,67.5,56.4,43.2,60.9,49.3,35.5,99,80,40,29.79,29.57,24,8,24,0.58
2013-4-13,56.3,44.8,36.7,37.1,32.0,25.3,84,64,35,29.92,29.77,22,8,22,0.00
2013-4-14,64.8,48.6,31.6,38.7,31.7,25.8,89,57,30,30.07,29.92,14,4,14,0.00
2013-4-15,59.0,54.2,50.5,50.5,45.5,37.8,88,73,56,30.14,30.02,22,8,22,0.00
2013-4-16,78.8,64.4,53.6,58.6,54.0,50.4,99,73,44,30.17,30.03,30,8,30,0.33
2013-4-17,70.3,60.0,51.8,60.5,56.8,51.3,99,90,67,30.18,30.09,13,3,13,0.00
2013-4-18,78.3,64.8,56.5,63.4,58.3,55.3,99,81,55,30.15,29.87,24,9,24,0.00
2013-4-19,73.0,57.7,41.5,60.8,52.4,35.3,99,83,60,29.88,29.54,24,10,24,0.28
2013-4-20,48.0,38.6,30.2,35.7,26.5,19.6,89,64,39,30.27,29.78,24,10,24,0.02
2013-4-21,54.0,37.9,23.5,27.5,19.4,10.2,88,53,24,30.44,30.26,14,4,14,0.00
2013-4-22,55.2,43.6,33.1,32.7,23.2,13.6,77,49,23,30.40,30.24,19,5,19,0.00
2013-4-23,67.5,48.7,31.6,42.2,35.5,30.0,98,66,31,30.26,30.00,12,3,12,0.00
2013-4-24,74.7,53.9,38.3,59.4,46.8,35.4,99,80,47,30.04,29.71,32,7,32,0.11
2013-4-25,56.7,44.0,33.8,35.7,28.4,17.7,95,61,26,30.24,30.04,17,6,17,0.02
2013-4-26,61.7,46.8,32.4,39.2,30.4,18.1,94,60,22,30.37,30.24,14,4,14,0.00
2013-4-27,69.3,51.7,30.4,43.1,33.3,26.8,95,57,24,30.33,30.17,12,3,12,0.00
2013-4-28,52.0,50.3,44.6,43.9,42.7,39.6,86,76,66,30.17,30.10,11,5,11,0.00
2013-4-29,51.3,51.3,51.3,43.5,43.5,43.5,75,75,75,30.11,30.11,6,6,11,0.00
2013-4-30,67.8,52.0,51.1,53.5,45.9,41.3,99,80,38,30.11,29.83,13,6,13,0.19